| time (UTC) | temp F | wind direction | speed MPH | gust MPH | rain 1hr in | rain 24hr in | rain mn in | humidity % | barometer mb |
| 20260507183058 | 60 | 31 | 9.0 | 23.0 | 0.00 | 0.20 | 0.00 | 34 | 1005.2 |
| 20260507181554 | 60 | 339 | 9.0 | 25.0 | 0.00 | 0.20 | 0.00 | 34 | 1005.3 |
| 20260507180048 | 60 | 11 | 8.0 | 16.0 | 0.00 | 0.20 | 0.00 | 36 | 1005.4 |
| 20260507174547 | 61 | 317 | 11.0 | 18.0 | 0.00 | 0.20 | 0.00 | 35 | 1005.4 |
| 20260507173043 | 60 | 348 | 6.0 | 21.0 | 0.00 | 0.20 | 0.00 | 36 | 1005.3 |
| 20260507171531 | 59 | 355 | 10.0 | 21.0 | 0.00 | 0.20 | 0.00 | 35 | 1005.4 |
| 20260507170024 | 59 | 318 | 8.0 | 13.0 | 0.00 | 0.20 | 0.00 | 41 | 1005.5 |
| 20260507164520 | 58 | 339 | 8.0 | 22.0 | 0.00 | 0.20 | 0.00 | 43 | 1005.7 |
| 20260507163015 | 58 | 275 | 11.0 | 22.0 | 0.00 | 0.20 | 0.00 | 43 | 1006.0 |
| 20260507161520 | 58 | 304 | 11.0 | 23.0 | 0.00 | 0.20 | 0.00 | 45 | 1006.2 |
| 20260507160005 | 57 | 341 | 7.0 | 16.0 | 0.00 | 0.20 | 0.00 | 46 | 1006.2 |
| 20260507154601 | 56 | 302 | 12.0 | 25.0 | 0.00 | 0.20 | 0.00 | 45 | 1006.3 |
| 20260507153056 | 57 | 360 | 10.0 | 20.0 | 0.00 | 0.20 | 0.00 | 44 | 1006.2 |
| 20260507151550 | 56 | 296 | 8.0 | 16.0 | 0.00 | 0.20 | 0.00 | 38 | 1006.5 |
| 20260507150043 | 57 | 336 | 7.0 | 15.0 | 0.00 | 0.20 | 0.00 | 34 | 1006.6 |
| 20260507144602 | 57 | 322 | 6.0 | 14.0 | 0.00 | 0.20 | 0.00 | 26 | 1006.7 |
| 20260507143034 | 56 | 317 | 8.0 | 15.0 | 0.00 | 0.20 | 0.00 | 15 | 1006.7 |
| 20260507141530 | 56 | 280 | 6.0 | 15.0 | 0.00 | 0.20 | 0.00 | 9 | 1006.6 |
| 20260507140022 | 56 | 299 | 4.0 | 13.0 | 0.00 | 0.20 | 0.00 | 1 | 1006.5 |
| 20260507134518 | 55 | 343 | 5.0 | 16.0 | 0.00 | 0.20 | 0.00 | 1 | 1006.6 |
| 20260507133014 | 54 | 348 | 4.0 | 12.0 | 0.00 | 0.20 | 0.20 | 1 | 1006.6 |
| 20260507131509 | 54 | 321 | 6.0 | 11.0 | 0.00 | 0.20 | 0.20 | 1 | 1006.8 |
| 20260507130006 | 53 | 338 | 7.0 | 12.0 | 0.00 | 0.20 | 0.20 | 1 | 1006.9 |
| 20260507124509 | 53 | 348 | 4.0 | 10.0 | 0.00 | 0.20 | 0.20 | 1 | 1007.0 |
| 20260507123005 | 52 | 46 | 5.0 | 12.0 | 0.00 | 0.20 | 0.20 | 1 | 1007.1 |
| 20260507121504 | 51 | 339 | 4.0 | 13.0 | 0.00 | 0.20 | 0.20 | 1 | 1007.2 |
| 20260507120002 | 50 | 321 | 2.0 | 10.0 | 0.00 | 0.20 | 0.20 | 1 | 1007.1 |
| 20260507114600 | 50 | 55 | 6.0 | 11.0 | 0.00 | 0.20 | 0.20 | 1 | 1007.1 |
| 20260507113054 | 49 | 334 | 4.0 | 7.0 | 0.00 | 0.20 | 0.20 | 1 | 1006.9 |
| 20260507111551 | 49 | 341 | 4.0 | 8.0 | 0.00 | 0.20 | 0.20 | 1 | 1006.9 |
| 20260507110043 | 48 | 360 | 4.0 | 6.0 | 0.00 | 0.20 | 0.20 | 1 | 1006.9 |
| 20260507104538 | 48 | 335 | 4.0 | 8.0 | 0.00 | 0.20 | 0.20 | 1 | 1007.0 |
| 20260507103036 | 48 | 328 | 1.0 | 6.0 | 0.00 | 0.20 | 0.20 | 1 | 1006.2 |
| 20260507101538 | 48 | 44 | 1.0 | 8.0 | 0.00 | 0.20 | 0.20 | 1 | 1006.2 |
| 20260507100032 | 48 | 346 | 4.0 | 7.0 | 0.00 | 0.20 | 0.20 | 1 | 1006.2 |
| 20260507094520 | 48 | 12 | 2.0 | 10.0 | 0.00 | 0.20 | 0.20 | 1 | 1006.1 |
| 20260507093019 | 48 | 355 | 5.0 | 10.0 | 0.00 | 0.20 | 0.20 | 1 | 1006.3 |
| 20260507091510 | 48 | 5 | 5.0 | 11.0 | 0.00 | 0.20 | 0.20 | 1 | 1006.4 |
| 20260507090007 | 48 | 338 | 5.0 | 12.0 | 0.00 | 0.20 | 0.20 | 1 | 1006.5 |
| 20260507084600 | 48 | 338 | 2.0 | 7.0 | 0.00 | 0.20 | 0.20 | 1 | 1006.5 |
| 20260507083055 | 49 | 10 | 4.0 | 9.0 | 0.01 | 0.20 | 0.20 | 1 | 1006.4 |
| 20260507081550 | 49 | 342 | 4.0 | 10.0 | 0.01 | 0.20 | 0.20 | 1 | 1006.3 |
| 20260507080046 | 49 | 340 | 3.0 | 9.0 | 0.01 | 0.20 | 0.20 | 1 | 1006.2 |
| 20260507074539 | 50 | 312 | 4.0 | 10.0 | 0.01 | 0.20 | 0.20 | 1 | 1006.2 |
| 20260507073035 | 51 | 317 | 5.0 | 9.0 | 0.00 | 0.19 | 0.19 | 1 | 1006.4 |
| 20260507071530 | 51 | 333 | 4.0 | 8.0 | 0.00 | 0.19 | 0.19 | 1 | 1005.8 |
| 20260507070026 | 51 | 313 | 5.0 | 12.0 | 0.00 | 0.19 | 0.19 | 1 | 1005.5 |
| 20260507064522 | 51 | 317 | 4.0 | 11.0 | 0.00 | 0.19 | 0.19 | 1 | 1005.2 |
| 20260507063016 | 52 | 300 | 6.0 | 11.0 | 0.00 | 0.19 | 0.19 | 1 | 1005.5 |
| 20260507061510 | 52 | 329 | 5.0 | 10.0 | 0.00 | 0.19 | 0.19 | 1 | 1005.5 |
| 20260507060007 | 52 | 25 | 5.0 | 11.0 | 0.00 | 0.19 | 0.19 | 1 | 1005.4 |
| 20260507054609 | 53 | 345 | 3.0 | 8.0 | 0.00 | 0.19 | 0.19 | 1 | 1005.6 |
| 20260507053058 | 53 | 336 | 5.0 | 8.0 | 0.00 | 0.19 | 0.19 | 1 | 1006.1 |
| 20260507051551 | 53 | 331 | 4.0 | 8.0 | 0.00 | 0.19 | 0.19 | 1 | 1005.7 |
| 20260507050046 | 54 | 311 | 4.0 | 7.0 | 0.00 | 0.19 | 0.19 | 1 | 1005.9 |
| 20260507044553 | 54 | 325 | 3.0 | 8.0 | 0.01 | 0.19 | 0.19 | 1 | 1005.8 |
| 20260507043035 | 54 | 355 | 7.0 | 14.0 | 0.01 | 0.19 | 0.19 | 1 | 1005.5 |
| 20260507041531 | 55 | 337 | 5.0 | 12.0 | 0.01 | 0.19 | 0.19 | 1 | 1005.6 |
| 20260507040032 | 56 | 333 | 4.0 | 11.0 | 0.01 | 0.19 | 0.19 | 1 | 1005.6 |
| 20260507034520 | 57 | 327 | 5.0 | 14.0 | 0.00 | 0.18 | 0.18 | 1 | 1005.5 |
| 20260507033015 | 58 | 349 | 6.0 | 13.0 | 0.00 | 0.18 | 0.18 | 1 | 1005.2 |
| 20260507031510 | 58 | 288 | 7.0 | 13.0 | 0.00 | 0.18 | 0.18 | 1 | 1004.9 |
| 20260507030005 | 58 | 351 | 7.0 | 18.0 | 0.00 | 0.18 | 0.18 | 1 | 1004.5 |
| 20260507024600 | 59 | 321 | 7.0 | 16.0 | 0.00 | 0.18 | 0.18 | 1 | 1004.3 |
| 20260507023056 | 59 | 337 | 6.0 | 14.0 | 0.00 | 0.18 | 0.18 | 1 | 1004.7 |
| 20260507021556 | 59 | 259 | 9.0 | 16.0 | 0.00 | 0.18 | 0.18 | 1 | 1004.4 |
| 20260507020051 | 59 | 252 | 4.0 | 11.0 | 0.01 | 0.18 | 0.18 | 1 | 1004.1 |
| 20260507014544 | 59 | 265 | 7.0 | 12.0 | 0.01 | 0.18 | 0.18 | 1 | 1004.3 |
| 20260507013045 | 59 | 225 | 7.0 | 13.0 | 0.01 | 0.18 | 0.18 | 1 | 1004.3 |
| 20260507011534 | 59 | 211 | 8.0 | 15.0 | 0.01 | 0.18 | 0.18 | 1 | 1004.3 |
| 20260507010030 | 59 | 263 | 6.0 | 13.0 | 0.00 | 0.17 | 0.17 | 1 | 1004.4 |
| 20260507004529 | 59 | 284 | 7.0 | 14.0 | 0.00 | 0.17 | 0.17 | 1 | 1004.4 |
| 20260507003026 | 59 | 265 | 7.0 | 16.0 | 0.00 | 0.17 | 0.17 | 1 | 1004.2 |
| 20260507001522 | 59 | 265 | 6.0 | 14.0 | 0.00 | 0.17 | 0.17 | 1 | 1004.2 |
| 20260507000013 | 59 | 228 | 8.0 | 20.0 | 0.00 | 0.17 | 0.17 | 1 | 1004.3 |
| 20260506234539 | 59 | 186 | 5.0 | 16.0 | 0.04 | 0.17 | 0.17 | 1 | 1004.0 |
| 20260506233031 | 59 | 282 | 5.0 | 15.0 | 0.05 | 0.17 | 0.17 | 1 | 1004.0 |
| 20260506231557 | 59 | 217 | 5.0 | 18.0 | 0.06 | 0.17 | 0.17 | 1 | 1003.9 |
| 20260506230055 | 59 | 232 | 8.0 | 15.0 | 0.08 | 0.17 | 0.17 | 1 | 1004.0 |
| 20260506224559 | 59 | 271 | 7.0 | 16.0 | 0.05 | 0.13 | 0.13 | 1 | 1004.1 |
| 20260506223040 | 59 | 232 | 6.0 | 19.0 | 0.05 | 0.12 | 0.12 | 1 | 1004.2 |
| 20260506221535 | 59 | 228 | 9.0 | 19.0 | 0.04 | 0.11 | 0.11 | 1 | 1004.2 |
| 20260506220036 | 59 | 248 | 6.0 | 19.0 | 0.02 | 0.09 | 0.09 | 1 | 1004.3 |
| 20260506214525 | 59 | 244 | 7.0 | 19.0 | 0.02 | 0.08 | 0.08 | 1 | 1004.5 |
| 20260506213021 | 60 | 218 | 7.0 | 16.0 | 0.01 | 0.07 | 0.07 | 1 | 1004.4 |
| 20260506211515 | 60 | 240 | 9.0 | 23.0 | 0.02 | 0.07 | 0.07 | 1 | 1004.7 |
| 20260506210017 | 60 | 239 | 10.0 | 21.0 | 0.02 | 0.07 | 0.07 | 1 | 1004.7 |
| 20260506204507 | 60 | 232 | 8.0 | 16.0 | 0.02 | 0.06 | 0.06 | 1 | 1005.0 |
| 20260506203035 | 60 | 227 | 7.0 | 18.0 | 0.02 | 0.06 | 0.06 | 1 | 1005.0 |
| 20260506201531 | 61 | 259 | 7.0 | 14.0 | 0.02 | 0.05 | 0.05 | 1 | 1005.0 |
| 20260506200023 | 62 | 239 | 8.0 | 18.0 | 0.03 | 0.05 | 0.05 | 1 | 1005.0 |
| 20260506194519 | 62 | 239 | 7.0 | 16.0 | 0.03 | 0.04 | 0.04 | 1 | 1005.0 |
| 20260506193015 | 63 | 226 | 9.0 | 16.0 | 0.04 | 0.04 | 0.04 | 1 | 1005.1 |
| 20260506191510 | 63 | 207 | 6.0 | 15.0 | 0.03 | 0.03 | 0.03 | 1 | 1005.1 |
| 20260506190002 | 64 | 267 | 7.0 | 20.0 | 0.02 | 0.02 | 0.02 | 1 | 1004.9 |
| 20260506184557 | 65 | 258 | 9.0 | 21.0 | 0.01 | 0.01 | 0.01 | 1 | 1005.2 |